Location: Boston
(42.3580°N, 71.0600°W)
Time: 11:14:32
(UTC-05:00)

N. Korean satellite - Pass Details

Date: 08 October 2017
Orbit: 461 x 513 km, 97.2° (Epoch: 11 December)

Event Time Altitude Azimuth Distance (km) Brightness Sun altitude
Rises 18:38:07 0° 163° (SSE) 2,573 10.1 -5.4°
Reaches altitude 10° 18:40:12 10° 161° (SSE) 1,686 9.2 -5.8°
Maximum altitude 18:43:49 73° 77° (ENE) 514 6.5 -6.4°
Drops below altitude 10° 18:47:24 10° 352° (N) 1,669 9.4 -7.1°
Sets 18:49:27 0° 351° (N) 2,545 10.3 -7.5°
